Portland, ME

1:14 PM EST on February 24, 2018 (GMT -0500)
Portland International

Weather History for KPWM - February, 2013

Change the Weather History Date:

Wednesday, February 20, 2013

  Actual Average Record
Temperature  
Mean Temperature 35 °F 27 °F  
Max Temperature 43 °F 36 °F 61 °F (1994)
Min Temperature 27 °F 18 °F -12 °F (1966)
Degree Days  
Heating Degree Days 30 38  
Month to date heating degree days 773 809  
Since 1 July heating degree days 4344 4745  
Cooling Degree Days 0 0  
Month to date cooling degree days 0 0  
Year to date cooling degree days 0 0  
Moisture  
Dew Point 27 °F    
Average Humidity 77    
Maximum Humidity 100    
Minimum Humidity 54    
Precipitation  
Precipitation 0.02 in 0.11 in 2.17 in (1934)
Month to date precipitation 3.69 2.25  
Year to date precipitation 5.05 5.63  
Snow  
Snow 0.00 in 0.40 in 14.50 in (1934)
Month to date snowfall 35.9 8.7  
Since 1 July snowfall 70.9 43.0  
Snow Depth 6.00 in    
Sea Level Pressure  
Sea Level Pressure 29.54 in    
Wind  
Wind Speed 13 mph (WSW)    
Max Wind Speed 23 mph    
Max Gust Speed 29 mph    
Visibility 10 miles    
Events Rain    
T = Trace of Precipitation, MM = Missing Value Source: NWS Daily Summary

Daily Weather History Graph

Daily Weather History Graph

Search for Another Location

Airport or City:

Trip Planner

Search our weather history database for the weather conditions in past years. The results will help you decide how hot, cold, wet, or windy it might be!

Date:

Astronomy

Feb. 20, 2013 Rise Set
Actual Time 6:31 AM EST 5:18 PM EST
Civil Twilight 6:02 AM EST 5:47 PM EST
Nautical Twilight 5:29 AM EST 6:21 PM EST
Astronomical Twilight 4:56 AM EST 6:54 PM EST
Moon 12:31 PM EST (2/20) 2:55 AM EST (2/20)
Length of Visible Light 11h 44m
Length of Day
10h 46m
Waxing Gibbous, 76% of the Moon is Illuminated
Feb 20
Waxing Gibbous
Feb 25
Full
Mar 4
Last Quarter
Mar 11
New
Mar 19
First Quarter

Hourly Weather History & Observations

Time (EST) Temp. Windchill Dew Point Humidity Pressure Visibility Wind Dir Wind Speed Gust Speed Precip Events Conditions
12:16 AM 43.0 °F 39.5 °F 41.0 °F 93% 29.54 in 7.0 mi South 5.8 mph - 0.03 in Rain Light Rain
12:34 AM 42.1 °F 38.4 °F 41.0 °F 96% 29.53 in 8.0 mi South 5.8 mph - 0.04 in Rain Light Rain
12:40 AM 42.1 °F 38.4 °F 41.0 °F 96% 29.52 in 9.0 mi South 5.8 mph - 0.04 in Rain Light Rain
12:51 AM 42.1 °F 38.4 °F 39.9 °F 92% 29.51 in 9.0 mi SSW 5.8 mph - 0.04 in Rain Light Rain
1:51 AM 39.9 °F 36.7 °F 39.9 °F 100% 29.49 in 7.0 mi SSW 4.6 mph - 0.00 in   Overcast
2:39 AM 39.9 °F 36.7 °F 39.0 °F 97% 29.46 in 10.0 mi SW 4.6 mph - N/A   Overcast
2:51 AM 39.9 °F 35.1 °F 39.0 °F 97% 29.46 in 10.0 mi WSW 6.9 mph - N/A   Overcast
3:41 AM 37.9 °F 31.5 °F 36.0 °F 93% 29.44 in 10.0 mi West 9.2 mph - N/A   Overcast
3:51 AM 37.0 °F 30.4 °F 35.1 °F 93% 29.44 in 10.0 mi West 9.2 mph - N/A   Overcast
4:51 AM 36.0 °F 29.0 °F 33.1 °F 89% 29.46 in 10.0 mi WSW 9.2 mph - N/A   Scattered Clouds
5:33 AM 36.0 °F 27.5 °F 32.0 °F 86% 29.46 in 10.0 mi WSW 12.7 mph - N/A   Mostly Cloudy
5:51 AM 36.0 °F 27.1 °F 32.0 °F 86% 29.48 in 10.0 mi West 13.8 mph - N/A   Scattered Clouds
6:51 AM 35.1 °F 26.9 °F 30.9 °F 85% 29.51 in 10.0 mi West 11.5 mph - N/A   Mostly Cloudy
7:51 AM 34.0 °F 26.0 °F 28.0 °F 79% 29.53 in 10.0 mi West 10.4 mph - N/A   Mostly Cloudy
8:51 AM 35.1 °F 25.2 °F 26.1 °F 70% 29.53 in 10.0 mi West 16.1 mph - N/A   Mostly Cloudy
9:51 AM 36.0 °F 27.5 °F 25.0 °F 64% 29.53 in 10.0 mi West 12.7 mph 21.9 mph N/A   Mostly Cloudy
10:51 AM 36.0 °F 28.0 °F 23.0 °F 59% 29.54 in 10.0 mi West 11.5 mph 17.3 mph N/A   Mostly Cloudy
11:51 AM 36.0 °F 26.7 °F 21.0 °F 55% 29.53 in 10.0 mi West 15.0 mph - N/A   Overcast
12:51 PM 35.1 °F 24.8 °F 21.0 °F 57% 29.52 in 10.0 mi West 17.3 mph 23.0 mph N/A   Overcast
1:51 PM 35.1 °F 24.5 °F 21.0 °F 57% 29.52 in 10.0 mi West 18.4 mph 21.9 mph N/A   Overcast
2:51 PM 33.1 °F 20.9 °F 19.9 °F 59% 29.53 in 10.0 mi West 21.9 mph 27.6 mph N/A   Overcast
3:51 PM 32.0 °F 19.8 °F 19.0 °F 59% 29.55 in 10.0 mi West 20.7 mph 27.6 mph N/A   Overcast
4:51 PM 32.0 °F - 18.0 °F 56% 29.57 in 10.0 mi North - - N/A   Overcast
5:51 PM 30.9 °F 19.4 °F 18.0 °F 59% 29.59 in 10.0 mi WNW 17.3 mph - N/A   Overcast
6:51 PM 30.9 °F 20.7 °F 18.0 °F 59% 29.61 in 10.0 mi West 13.8 mph - N/A   Overcast
7:51 PM 30.0 °F 18.3 °F 17.1 °F 59% 29.62 in 10.0 mi West 17.3 mph 25.3 mph N/A   Overcast
8:51 PM 28.9 °F 18.2 °F 15.1 °F 56% 29.63 in 10.0 mi West 13.8 mph - N/A   Clear
9:51 PM 28.4 °F 18.5 °F 15.8 °F 59% 29.64 in 10.0 mi West 11.5 mph - N/A   Clear
10:51 PM 28.0 °F 16.5 °F 15.1 °F 58% 29.65 in 10.0 mi West 15.0 mph 20.7 mph N/A   Mostly Cloudy
11:51 PM 27.0 °F 16.1 °F 14.0 °F 58% 29.67 in 10.0 mi WSW 12.7 mph - N/A   Clear